This demonstration page uses our WeatherBlox Daily Observations layout. Learn more.

36.17497, -115.13722

Hourly Observations for August 11, 2020

Temp ( °F °C ) Dew Point ( °F °C ) Humidity (%) Winds ( mph kmh ) Pressure ( in mb ) Visibility ( mi km ) Precip ( " mm )
12:53 am 00:53 Clear 92 33.3 26 -3.3 9 9 SSW 13 20 29.79 1009 10 16.0934 0 0
1:53 am 01:53 Clear 90 32.2 25 -3.9 9 9 SW 7 11 29.79 1009 10 16.0934 0 0
2:53 am 02:53 Clear 87 30.6 26 -3.3 11 11 SSW 7 11 29.8 1009 10 16.0934 0 0
3:53 am 03:53 Clear 87 30.6 25 -3.9 10 10 S 9 15 29.81 1009 10 16.0934 0 0
4:53 am 04:53 Clear 87 30.6 27 -2.8 11 11 VRB 5 7 29.81 1009 10 16.0934 0 0
5:53 am 05:53 Clear 80 26.7 29 -1.7 15 15 WNW 3 6 29.83 1010 10 16.0934 0 0
6:53 am 06:53 Sunny 81 27.2 30 -1.1 16 16 NW 5 7 29.85 1011 10 16.0934 0 0
7:53 am 07:53 Sunny 86 30 34 1.1 15 15 N 3 6 29.86 1011 10 16.0934 0 0
8:53 am 08:53 Sunny 91 32.8 26 -3.3 9 9 Calm 29.86 1011 10 16.0934 0 0
9:53 am 09:53 Sunny 96 35.6 26 -3.3 8 8 SE 7 11 29.86 1011 10 16.0934 0 0
10:53 am 10:53 Sunny 100 37.8 25 -3.9 7 7 undefined N/A 29.85 1011 10 16.0934 0 0
11:53 am 11:53 Sunny 103 39.4 34 1.1 9 9 ESE 10 17 29.83 1010 10 16.0934 0 0
12:15 pm 12:15 Sunny 105 40.6 33 0.6 8 8 SSE 22 35 29.64 1004 10 16.0934 0 0
12:53 pm 12:53 Sunny 105 40.6 31 -0.6 7 7 S 17 28 29.81 1010 10 16.0934 0 0
1:37 pm 13:37 Sunny 105 40.6 30 -1.1 7 7 SW 16 26 29.63 1003 10 16.0934 0 0
1:53 pm 13:53 Sunny 105 40.6 30 -1.1 7 7 SW 13 20 29.8 1009 10 16.0934 0 0
2:53 pm 14:53 Sunny 107 41.7 27 -2.8 6 6 SSW 20 31 29.77 1008 10 16.0934 0 0
3:53 pm 15:53 Sunny 107 41.7 13 -10.6 3 3 SW 20 31 29.76 1008 10 16.0934 0 0
4:53 pm 16:53 Sunny 105 40.6 11 -11.7 3 3 SSW 16 26 29.75 1008 10 16.0934 0 0
5:53 pm 17:53 Sunny 104 40 10 -12.2 3 3 SW 18 30 29.75 1008 10 16.0934 0 0
6:53 pm 18:53 Sunny 102 38.9 10 -12.2 3 3 WSW 12 19 29.75 1007 10 16.0934 0 0
7:53 pm 19:53 Clear 100 37.8 8 -13.3 3 3 WSW 10 17 29.75 1008 10 16.0934 0 0
8:53 pm 20:53 Clear 98 36.7 5 -15 3 3 SW 14 22 29.77 1008 10 16.0934 0 0
9:53 pm 21:53 Clear 95 35 8 -13.3 4 4 WSW 7 11 29.78 1009 10 16.0934 0 0
10:53 pm 22:53 Clear 92 33.3 9 -12.8 4 4 SW 9 15 29.78 1009 10 16.0934 0 0
11:53 pm 23:53 Clear 91 32.8 9 -12.8 4 4 S 10 17 29.79 1009 10 16.0934 0 0

Powered by AerisWeather